Location: Berville
(49.1893°N, 2.0748°E)
Time: 18:56:47
(UTC+00:00)

FENGYUN 1C DEB - Pass Details

Date: 28 February 2024
Orbit: 768 x 960 km, 99.0° (Epoch: 13 April)

Event Time Altitude Azimuth Distance (km) Brightness Sun altitude
Exits shadow 22:07:04 24° 293° (WNW) 1,895 ? -41.9°
Drops below altitude 10° 22:10:24 10° 324° (NW) 2,685 ? -42.3°
Sets 22:13:16 0° 337° (NNW) 3,617 ? -42.6°
